Content
SEND FEEDBACK

Daily
Averages
Monthly
Summary
United States of America

KINGS MILLS, OHIO


Home > North America > United States > Ohio
Elevation: 750 feet     Latitude: 39 21N     Longitude: 084 15W

WEATHER
 
SELECT A DAY
Number of Records: 190,476;   Date Range: 4/25/06 - 8/12/14
 
SHARE

PRINT THIS DATA

[ ← Previous Day ]
WEATHER ALMANAC - JANUARY 31, 2013
[ Next Day → ]
[ °C ]   °F
Weather ElementAverageHighLow
Temperature27.8 °F32.5 °F (12:35 am)16.5 °F (11:55 pm)
Dewpoint20.7 °F28.9 °F (12:35 am)9.7 °F (11:55 pm)
Humidity75.2 %98 % (8:15 pm)60 % (2:35 pm)
Barometer29.87 in30.06 in (11:55 pm)29.60 in (12:35 am)
Wind Speed17.8 mph31.1 mph (3:35 am)
Wind Gust41.4 mph (8:35 am)
Weather ElementAverage
Visibility8.7 mi
Wind DirectionW (266.5 °)

Weather ElementTotal
Precipitation---
Heating Degree Days40.5 (Base 65)
Averaged from 69 records on January 31, 2013
WEATHER CONDITIONS BREAKOUT
WIND DIRECTION BREAKOUT
WEATHER BY HOUR - JANUARY 31, 2013
[ °C ]   °F
Local TimeTemperatureDewpointHumidityBarometerVisibilityWind DirectionWind SpeedGust SpeedPrecipitationEventsConditions
12:35 AM32.5 °F28.9 °F87 %29.60 in10.0 miWest (270°)20.7 mph32.2 mphOvercast
12:55 AM32.5 °F28.0 °F83 %29.62 in10.0 miWest (260°)18.4 mph39.1 mphOvercast
1:15 AM32.5 °F28.8 °F86 %29.64 in10.0 miWest (260°)27.6 mph34.5 mphOvercast
1:35 AM32.5 °F28.6 °F85 %29.65 in10.0 miWest (270°)21.9 mph33.4 mphOvercast
1:55 AM31.8 °F27.5 °F84 %29.67 in10.0 miWest (260°)17.3 mph26.5 mphOvercast
2:15 AM30.2 °F24.8 °F80 %29.68 in10.0 miWest (270°)21.9 mph38.0 mphOvercast
2:35 AM30.2 °F25.3 °F82 %29.70 in10.0 miWest (260°)24.2 mph35.7 mphOvercast
2:55 AM28.6 °F23.0 °F80 %29.72 in10.0 miWest (270°)25.3 mph38.0 mphOvercast
3:15 AM28.2 °F22.8 °F80 %29.72 in10.0 miWSW (250°)18.4 mph29.9 mphOvercast
3:35 AM27.9 °F22.8 °F81 %29.74 in10.0 miWest (260°)31.1 mph39.1 mphOvercast
3:55 AM27.9 °F21.7 °F78 %29.75 in10.0 miWest (270°)19.6 mph33.4 mphOvercast
4:15 AM27.9 °F19.6 °F71 %29.76 in10.0 miWest (270°)24.2 mph38.0 mphOvercast
4:35 AM27.9 °F20.5 °F74 %29.75 in10.0 miWest (260°)21.9 mph28.8 mphOvercast
4:55 AM27.9 °F22.3 °F80 %29.76 in10.0 miWest (260°)19.6 mph33.4 mphOvercast
5:15 AM27.9 °F21.0 °F75 %29.76 in10.0 miWest (270°)23.0 mph32.2 mphSnowLight Snow
5:35 AM27.9 °F20.7 °F74 %29.77 in10.0 miWest (270°)21.9 mph29.9 mphOvercast
5:55 AM27.9 °F19.9 °F72 %29.78 in10.0 miWest (280°)24.2 mph36.8 mphSnowLight Snow
6:15 AM27.9 °F18.5 °F68 %29.78 in10.0 miWest (270°)24.2 mph34.5 mphOvercast
6:35 AM27.9 °F19.6 °F71 %29.79 in10.0 miWest (270°)17.3 mph27.6 mphOvercast
7:15 AM27.9 °F22.1 °F79 %29.81 in10.0 miWSW (250°)17.3 mph23.0 mphSnowLight Snow
7:55 AM25.3 °F21.7 °F86 %29.84 in5.0 miWest (270°)11.5 mph26.5 mphSnowLight Snow
8:15 AM25.3 °F19.8 °F79 %29.85 in10.0 miWest (260°)16.1 mph28.8 mphSnowLight Snow
8:35 AM25.3 °F16.7 °F70 %29.88 in10.0 miWest (260°)31.1 mph41.4 mphOvercast
8:55 AM25.3 °F16.3 °F69 %29.89 in10.0 miWest (260°)21.9 mph33.4 mphOvercast
9:15 AM25.3 °F16.3 °F69 %29.90 in10.0 miWest (270°)13.8 mph33.4 mphOvercast
9:35 AM25.3 °F16.3 °F69 %29.91 in10.0 miWest (270°)16.1 mph27.6 mphSnowLight Snow
9:55 AM25.3 °F15.8 °F67 %29.91 in10.0 miWest (260°)18.4 mph25.3 mphOvercast
10:15 AM27.9 °F18.5 °F68 %29.92 in10.0 miWest (270°)13.8 mph31.1 mphOvercast
10:35 AM27.9 °F20.1 °F73 %29.92 in10.0 miWSW (240°)17.3 mph24.2 mphOvercast
10:55 AM27.9 °F20.5 °F74 %29.92 in10.0 miWSW (250°)17.3 mph25.3 mphOvercast
11:15 AM27.9 °F19.4 °F71 %29.93 in10.0 miWSW (250°)18.4 mph24.2 mphOvercast
11:35 AM27.9 °F18.5 °F68 %29.92 in10.0 miWest (260°)15.0 mph21.9 mphOvercast
11:55 AM27.9 °F17.6 °F65 %29.92 in10.0 miWSW (250°)20.7 mph28.8 mphOvercast
12:15 PM28.0 °F17.6 °F65 %29.92 in10.0 miWSW (250°)17.3 mph26.5 mphOvercast
12:35 PM28.8 °F17.6 °F63 %29.92 in10.0 miWSW (250°)20.7 mph27.6 mphOvercast
12:55 PM30.2 °F19.4 °F64 %29.91 in10.0 miWSW (240°)21.9 mph31.1 mphOvercast
1:15 PM30.4 °F20.8 °F68 %29.92 in10.0 miWSW (250°)20.7 mph26.5 mphOvercast
1:35 PM30.2 °F20.7 °F68 %29.92 in10.0 miWSW (240°)19.6 mph28.8 mphMostly Cloudy
1:55 PM30.2 °F22.6 °F73 %29.92 in10.0 miWSW (250°)19.6 mph28.8 mphOvercast
2:15 PM30.2 °F20.3 °F67 %29.90 in10.0 miWSW (240°)26.5 mph33.4 mphOvercast
2:35 PM32.5 °F20.1 °F60 %29.91 in10.0 miWSW (250°)15.0 mph24.2 mphMostly Cloudy
2:55 PM32.5 °F20.1 °F60 %29.90 in10.0 miWSW (250°)19.6 mph26.5 mphMostly Cloudy
3:15 PM32.5 °F21.0 °F63 %29.90 in10.0 miWSW (250°)12.7 mph28.8 mphOvercast
3:35 PM31.8 °F22.1 °F67 %29.91 in10.0 miWSW (250°)18.4 mph28.8 mphMostly Cloudy
3:55 PM32.5 °F22.1 °F65 %29.90 in10.0 miWSW (240°)17.3 mph26.5 mphMostly Cloudy
4:15 PM30.2 °F21.2 °F69 %29.91 in10.0 miWSW (250°)17.3 mph26.5 mphSnowLight Snow
4:35 PM32.5 °F21.9 °F65 %29.90 in10.0 miWSW (240°)20.7 mph24.2 mphOvercast
4:55 PM30.2 °F22.1 °F72 %29.91 in7.0 miWest (270°)13.8 mph23.0 mphSnowLight Snow
5:15 PM30.2 °F22.3 °F72 %29.90 in10.0 miWest (260°)11.5 mphMostly Cloudy
5:35 PM30.2 °F20.3 °F67 %29.89 in10.0 miWSW (240°)11.5 mphOvercast
5:55 PM30.2 °F19.8 °F65 %29.91 in10.0 miWSW (240°)18.4 mph26.5 mphMostly Cloudy
6:15 PM30.2 °F19.2 °F64 %29.91 in10.0 miWSW (250°)15.0 mph21.9 mphMostly Cloudy
6:35 PM30.2 °F19.9 °F66 %29.91 in10.0 miWest (260°)10.4 mph17.3 mphOvercast
6:55 PM29.1 °F21.0 °F72 %29.92 in10.0 miWest (260°)15.0 mph20.7 mphSnowLight Snow
7:15 PM28.2 °F21.9 °F77 %29.92 in7.0 miWest (270°)13.8 mph19.6 mphSnowLight Snow
7:35 PM27.9 °F24.6 °F88 %29.93 in2.5 miWest (270°)11.5 mph20.7 mphSnowLight Snow
7:55 PM27.9 °F26.6 °F95 %29.94 in1.5 miWest (280°)12.7 mph17.3 mphSnowLight Snow
8:15 PM27.9 °F27.3 °F98 %29.94 in1.2 miWest (270°)10.4 mph24.2 mphSnowLight Snow
8:35 PM25.3 °F24.3 °F96 %29.95 in1.0 miWNW (300°)10.4 mph19.6 mphSnowSnow
8:55 PM25.3 °F23.7 °F94 %29.95 in3.0 miNW (310°)11.5 mphSnowLight Snow
9:15 PM24.8 °F21.4 °F87 %29.96 in7.0 miNW (320°)17.3 mph23.0 mphOvercast
9:35 PM22.8 °F18.3 °F83 %29.96 in10.0 miNW (310°)12.7 mph25.3 mphOvercast
9:55 PM22.8 °F17.8 °F81 %29.98 in10.0 miNW (310°)11.5 mph17.3 mphOvercast
10:15 PM20.5 °F17.1 °F87 %29.99 in2.0 miNW (310°)15.0 mph25.3 mphSnowLight Snow
10:35 PM19.6 °F16.3 °F87 %30.00 in3.0 miNW (320°)10.4 mph17.3 mphSnowLight Snow
10:55 PM18.9 °F14.0 °F81 %30.01 in5.0 miNW (320°)12.7 mph26.5 mphSnowLight Snow
11:15 PM18.1 °F13.6 °F83 %30.03 in7.0 miWNW (300°)11.5 mph20.7 mphOvercast
11:35 PM17.6 °F14.0 °F86 %30.04 in2.5 miWNW (300°)16.1 mph25.3 mphSnowLight Snow
11:55 PM16.5 °F9.7 °F74 %30.06 in5.0 miWNW (300°)16.1 mph29.9 mphHaze
Hourly data recorded from KMWO, located miles away from Kings Mills, Ohio







STORIES FROM OUR PARTNERS